Regional Weather Roundup
Issued by NWS

Home | Current Version | Previous Version | Graphics & Text | Print | Product List | Glossary On
Versions: 1 2 3 4 5 6 7 8 9 10 11 12 13 14 15 16 17 18 19 20 21 22 23 24 25 26 27 28 29 30 31 32 33 34 35 36 37 38 39 40 41 42 43 44 45 46 47 48 49 50
000
ASUS43 KLSX 301859
RWRMO

WEATHER SUMMARY FOR MISSOURI
NATIONAL WEATHER SERVICE SPRINGFIELD MO
200 PM CDT MON MAR 30 2015

NOTE: "FAIR" INDICATES FEW OR NO CLOUDS BELOW 12,000 FEET WITH NO
       SIGNIFICANT WEATHER AND/OR OBSTRUCTIONS TO VISIBILITY.
       CURRENT SKY AND/OR WEATHER CONDITIONS ARE NOT AVAILABLE FOR
       CHILLICOTHE AND FARMINGTON.

MOZ001>031-035>038-043-044-053-054-302000-
...NORTHERN AND WESTERN MISSOURI...

CITY           SKY/WX    TMP DP  RH WIND       PRES   REMARKS
KANSAS CTY INT MOSUNNY   70  29  21 SW17      30.09F
KANSAS C DTWN  SUNNY     72  27  18 S15G21    30.09F
LEE`S SUMMIT   SUNNY     70  26  19 SW14      30.11F
ST JOSEPH      SUNNY     71  28  20 SW18G26   30.06F
CHILLICOTHE      N/A     69  32  25 S16G22    30.08F
KIRKSVILLE     SUNNY     68  29  23 SW15G25   30.07F

$$
MOZ066>068-077>081-088>096-101>105-302000-
...SOUTHWEST MISSOURI...

CITY           SKY/WX    TMP DP  RH WIND       PRES   REMARKS
SPRINGFIELD    SUNNY     67  30  25 S10       30.17F
JOPLIN         SUNNY     69  26  20 S6        30.16F

$$
MOZ032>034-039>042-045>050-055>058-069>072-302000-
...CENTRAL MISSOURI...

CITY           SKY/WX    TMP DP  RH WIND       PRES   REMARKS
COLUMBIA       SUNNY     68  29  23 S7        30.11F
JEFFERSON CITY SUNNY     67  27  22 MISG      30.12F
ROLLA          SUNNY     65  27  23 SW10      30.12F
SEDALIA        SUNNY     71  27  19 S9G17     30.12F
OSAGE BEACH    SUNNY     68  28  22 S9G18     30.14F

$$
MOZ051-052-059>065-302000-
...EAST CENTRAL MISSOURI...

CITY           SKY/WX    TMP DP  RH WIND       PRES   REMARKS
ST LOUIS INTL  MOSUNNY   68  30  24 S8        30.12F
SPIRIT OF STL  SUNNY     67  27  22 W7        30.11F
ST CHARLES     SUNNY     64  25  22 CALM      30.11F

$$
MOZ072>076-082>087-097>100-106>115-302000-
...SOUTH CENTRAL AND SOUTHEAST MISSOURI...

CITY           SKY/WX    TMP DP  RH WIND       PRES   REMARKS
CAPE GIRARDEAU SUNNY     64  32  30 VRB3      30.18F
FARMINGTON     SUNNY     64  28  25 S6        30.19F
POPLAR BLUFF   SUNNY     63  37  38 S8        30.18F
WEST PLAINS    SUNNY     66  29  24 SW6       30.18F

$$



USA.gov is the U.S. government's official web portal to all federal, state and local government web resources and services.